Weather History for KJZI - May, 2013

Change the Weather History Date:

Friday, May 24, 2013

  Actual Average (KCHS) Record (KCHS)
Temperature  
Mean Temperature 75 °F 75 °F  
Max Temperature 84 °F 85 °F 97 °F (1953)
Min Temperature 66 °F 64 °F 50 °F (1954)
Degree Days  
Heating Degree Days 0 0  
Month to date heating degree days 8  
Since 1 July heating degree days 1971  
Cooling Degree Days 10 10  
Month to date cooling degree days 171  
Year to date cooling degree days 289  
Growing Degree Days 25 (Base 50)    
Moisture  
Dew Point 55 °F    
Average Humidity 50    
Maximum Humidity 88    
Minimum Humidity 24    
Precipitation  
Precipitation 0.00 in 0.11 in 1.78 in (1979)
Month to date precipitation 2.22  
Year to date precipitation 15.51  
Sea Level Pressure  
Sea Level Pressure 29.98 in    
Wind  
Wind Speed 8 mph (NW)    
Max Wind Speed 17 mph    
Max Gust Speed 22 mph    
Visibility 10 miles    
Events      
T = Trace of Precipitation, MM = Missing Value Source: NWS Daily Summary

Daily Weather History Graph

Daily Weather History Graph

Search for Another Location

Airport or City:

Trip Planner

Search our weather history database for the weather conditions in past years. The results will help you decide how hot, cold, wet, or windy it might be!

Date:

Astronomy

May. 24, 2013 Rise Set
Actual Time 6:15 AM EDT 8:18 PM EDT
Civil Twilight 5:48 AM EDT 8:45 PM EDT
Nautical Twilight 5:14 AM EDT 9:19 PM EDT
Astronomical Twilight 4:38 AM EDT 9:55 PM EDT
Moon 7:59 PM EDT (5/24) 5:43 AM EDT (5/24)
Length of Visible Light 14h 57m
Length of Day
14h 02m
Full, 100% of the Moon is Illuminated
May 24
Full
May 25
Full
May 31
Last Quarter
Jun 8
New
Jun 16
First Quarter

Hourly Weather History & Observations

Time (EDT) Temp. Heat Index Dew Point Humidity Pressure Visibility Wind Dir Wind Speed Gust Speed Precip Events Conditions
12:15 AM 73.4 °F - 69.8 °F 88% 29.90 in 10.0 mi WSW 6.9 mph - 0.00 in   Clear
12:35 AM 73.4 °F - 68.0 °F 83% 29.90 in 10.0 mi WSW 5.8 mph - 0.00 in   Clear
12:55 AM 73.4 °F - 66.2 °F 78% 29.90 in 10.0 mi WSW 5.8 mph - 0.00 in   Clear
1:15 AM 73.4 °F - 66.2 °F 78% 29.89 in 10.0 mi WSW 4.6 mph - 0.00 in   Clear
1:35 AM 73.4 °F - 66.2 °F 78% 29.89 in 10.0 mi WSW 4.6 mph - 0.00 in   Clear
1:55 AM 73.4 °F - 64.4 °F 73% 29.88 in 10.0 mi SW 5.8 mph - 0.00 in   Clear
2:15 AM 73.4 °F - 64.4 °F 73% 29.89 in 10.0 mi WSW 8.1 mph - 0.00 in   Clear
2:35 AM 73.4 °F - 64.4 °F 73% 29.89 in 10.0 mi WSW 9.2 mph - 0.00 in   Partly Cloudy
2:55 AM 73.4 °F - 62.6 °F 69% 29.88 in 10.0 mi West 6.9 mph - 0.00 in   Clear
3:15 AM 73.4 °F - 62.6 °F 69% 29.88 in 10.0 mi West 6.9 mph - 0.00 in   Clear
3:35 AM 71.6 °F - 62.6 °F 73% 29.89 in 10.0 mi West 6.9 mph - 0.00 in   Clear
3:55 AM 71.6 °F - 60.8 °F 69% 29.88 in 10.0 mi West 6.9 mph - 0.00 in   Clear
4:15 AM 71.6 °F - 60.8 °F 69% 29.89 in 10.0 mi West 6.9 mph - 0.00 in   Clear
4:35 AM 69.8 °F - 60.8 °F 73% 29.89 in 10.0 mi West 6.9 mph - 0.00 in   Clear
4:55 AM 69.8 °F - 60.8 °F 73% 29.89 in 10.0 mi WNW 8.1 mph - 0.00 in   Clear
5:15 AM 69.8 °F - 59.0 °F 68% 29.89 in 10.0 mi WNW 8.1 mph - 0.00 in   Clear
5:35 AM 69.8 °F - 59.0 °F 68% 29.90 in 10.0 mi WNW 10.4 mph - 0.00 in   Clear
5:55 AM 68.0 °F - 57.2 °F 68% 29.91 in 10.0 mi WNW 6.9 mph - 0.00 in   Clear
6:15 AM 68.0 °F - 57.2 °F 68% 29.92 in 10.0 mi WNW 8.1 mph - 0.00 in   Clear
6:35 AM 68.0 °F - 57.2 °F 68% 29.93 in 10.0 mi West 8.1 mph - 0.00 in   Clear
6:55 AM 69.8 °F - 57.2 °F 64% 29.93 in 10.0 mi WNW 6.9 mph - 0.00 in   Clear
7:15 AM 69.8 °F - 57.2 °F 64% 29.93 in 10.0 mi WNW 8.1 mph - 0.00 in   Clear
7:35 AM 71.6 °F - 57.2 °F 60% 29.93 in 10.0 mi WNW 5.8 mph - 0.00 in   Clear
7:55 AM 73.4 °F - 59.0 °F 61% 29.94 in 10.0 mi West 8.1 mph - 0.00 in   Clear
8:15 AM 73.4 °F - 59.0 °F 61% 29.94 in 10.0 mi West 8.1 mph - 0.00 in   Clear
8:35 AM 75.2 °F - 57.2 °F 53% 29.95 in 10.0 mi WNW 8.1 mph - 0.00 in   Clear
8:55 AM 75.2 °F - 57.2 °F 53% 29.95 in 10.0 mi WNW 5.8 mph - 0.00 in   Clear
9:15 AM 78.8 °F - 59.0 °F 51% 29.96 in 10.0 mi WNW 9.2 mph - 0.00 in   Clear
9:35 AM 78.8 °F - 57.2 °F 47% 29.96 in 10.0 mi NW 10.4 mph - 0.00 in   Clear
9:55 AM 78.8 °F - 57.2 °F 47% 29.96 in 10.0 mi NNW 8.1 mph - 0.00 in   Clear
10:15 AM 78.8 °F - 57.2 °F 47% 29.96 in 10.0 mi NW 5.8 mph - 0.00 in   Clear
10:35 AM 80.6 °F 80.8 °F 57.2 °F 45% 29.96 in 10.0 mi WNW 6.9 mph - 0.00 in   Clear
10:55 AM 80.6 °F 80.8 °F 57.2 °F 45% 29.97 in 10.0 mi NNW 9.2 mph - 0.00 in   Clear
11:15 AM 80.6 °F 81.1 °F 59.0 °F 48% 29.98 in 10.0 mi WNW 8.1 mph - 0.00 in   Clear
11:35 AM 80.6 °F 80.8 °F 57.2 °F 45% 29.98 in 10.0 mi West 8.1 mph - 0.00 in   Clear
11:55 AM 80.6 °F 80.8 °F 57.2 °F 45% 29.98 in 10.0 mi NW 10.4 mph - 0.00 in   Scattered Clouds
12:15 PM 82.4 °F 81.7 °F 55.4 °F 39% 29.99 in 10.0 mi WNW 5.8 mph - 0.00 in   Scattered Clouds
12:35 PM 82.4 °F 81.7 °F 55.4 °F 39% 29.99 in 10.0 mi NW 11.5 mph - 0.00 in   Scattered Clouds
12:55 PM 82.4 °F 81.7 °F 55.4 °F 39% 29.99 in 10.0 mi NNW 10.4 mph 19.6 mph 0.00 in   Scattered Clouds
1:15 PM 84.2 °F 83.5 °F 57.2 °F 40% 29.99 in 10.0 mi NNW 12.7 mph 16.1 mph 0.00 in   Partly Cloudy
1:35 PM 82.4 °F 81.7 °F 55.4 °F 39% 29.99 in 10.0 mi West 9.2 mph 16.1 mph 0.00 in   Scattered Clouds
1:55 PM 84.2 °F 83.0 °F 55.4 °F 37% 29.99 in 10.0 mi NW 8.1 mph 17.3 mph 0.00 in   Scattered Clouds
2:15 PM 82.4 °F 81.7 °F 55.4 °F 39% 29.99 in 10.0 mi NW 10.4 mph - 0.00 in   Scattered Clouds
2:35 PM 84.2 °F 83.5 °F 57.2 °F 40% 29.99 in 10.0 mi NW 8.1 mph 19.6 mph 0.00 in   Scattered Clouds
2:55 PM 84.2 °F 83.5 °F 57.2 °F 40% 29.99 in 10.0 mi NNW 12.7 mph 18.4 mph 0.00 in   Scattered Clouds
3:15 PM 84.2 °F 83.0 °F 55.4 °F 37% 29.99 in 10.0 mi NNW 12.7 mph 18.4 mph 0.00 in   Partly Cloudy
3:35 PM 84.2 °F 82.8 °F 53.6 °F 35% 29.99 in 10.0 mi WNW 17.3 mph 21.9 mph 0.00 in   Clear
3:55 PM 84.2 °F 83.0 °F 55.4 °F 37% 30.00 in 10.0 mi NNW 13.8 mph 20.7 mph 0.00 in   Partly Cloudy
4:15 PM 84.2 °F 83.0 °F 55.4 °F 37% 30.00 in 10.0 mi NW 8.1 mph 16.1 mph 0.00 in   Partly Cloudy
4:35 PM 82.4 °F 81.4 °F 53.6 °F 37% 30.00 in 10.0 mi NNW 12.7 mph 16.1 mph 0.00 in   Scattered Clouds
4:55 PM 82.4 °F 81.7 °F 55.4 °F 39% 30.00 in 10.0 mi NW 10.4 mph 17.3 mph 0.00 in   Partly Cloudy
5:15 PM 84.2 °F 83.0 °F 55.4 °F 37% 30.01 in 10.0 mi NW 11.5 mph 18.4 mph 0.00 in   Clear
5:35 PM 82.4 °F 81.4 °F 53.6 °F 37% 30.01 in 10.0 mi NNW 10.4 mph 19.6 mph 0.00 in   Clear
5:55 PM 82.4 °F 81.4 °F 53.6 °F 37% 30.01 in 10.0 mi NW 15.0 mph 19.6 mph 0.00 in   Clear
6:15 PM 82.4 °F - 51.8 °F 35% 30.01 in 10.0 mi NNW 11.5 mph - 0.00 in   Clear
6:35 PM 82.4 °F - 51.8 °F 35% 30.02 in 10.0 mi NNW 13.8 mph 17.3 mph 0.00 in   Clear
6:55 PM 80.6 °F - 51.8 °F 37% 30.03 in 10.0 mi NNW 9.2 mph - 0.00 in   Clear
7:15 PM 80.6 °F - 48.2 °F 32% 30.04 in 10.0 mi NNW 8.1 mph 17.3 mph 0.00 in   Clear
7:35 PM 78.8 °F - 42.8 °F 28% 30.06 in 10.0 mi NNW 10.4 mph 19.6 mph 0.00 in   Clear
7:55 PM 77.0 °F - 39.2 °F 26% 30.07 in 10.0 mi NNW 12.7 mph 16.1 mph 0.00 in   Clear
8:15 PM 75.2 °F - 35.6 °F 24% 30.08 in 10.0 mi NNW 10.4 mph 17.3 mph 0.00 in   Clear
8:35 PM 73.4 °F - 35.6 °F 25% 30.09 in 10.0 mi NNW 6.9 mph - 0.00 in   Clear
8:55 PM 73.4 °F - 37.4 °F 27% 30.10 in 10.0 mi NNW 9.2 mph - 0.00 in   Clear
9:15 PM 71.6 °F - 37.4 °F 29% 30.11 in 10.0 mi NNW 6.9 mph - 0.00 in   Clear
9:35 PM 71.6 °F - 41.0 °F 33% 30.11 in 10.0 mi North 8.1 mph - 0.00 in   Clear
9:55 PM 71.6 °F - 42.8 °F 35% 30.13 in 10.0 mi North 8.1 mph - 0.00 in   Clear
10:15 PM 69.8 °F - 44.6 °F 40% 30.14 in 10.0 mi North 6.9 mph - 0.00 in   Clear
10:35 PM 69.8 °F - 44.6 °F 40% 30.15 in 10.0 mi North 5.8 mph - 0.00 in   Clear
10:55 PM 69.8 °F - 44.6 °F 40% 30.16 in 10.0 mi North 6.9 mph - 0.00 in   Clear
11:15 PM 68.0 °F - 44.6 °F 43% 30.17 in 10.0 mi Calm Calm - 0.00 in   Clear
11:35 PM 66.2 °F - 46.4 °F 49% 30.17 in 10.0 mi North 5.8 mph - 0.00 in   Clear
11:55 PM 66.2 °F - 46.4 °F 49% 30.17 in 10.0 mi North 3.5 mph - 0.00 in   Clear